Probability
0 0 0 0 0 0 0 0 0 0 0 0 0 0 0 0 0 0 0 0 0 0 0 0 0 0 0 0 0 0 0 0 0 0 0 0 0 0 0 0 0 0 0 0
0 0 0 0 0 0 0 0 0 0 0 0 0 0 0 0 0 0 0 0 0 0 0 0 0 0 0 0 0 0 0 0 0 0 0 0 0 0 0 0 0 0 0 0
0 0 0 0 0 0 0 0 0 0 0 0 0 0 0 0 0 0 0 0 0 0 0 0 0 0 0 0 0 0 0 0 0 0 0 0 0 0 0 0 0 0 0 0
0 0 0 0 0 0 0 0 0 0 0 0 0 0 0 0 0 0 0 0 0 0 0 0 0 0 0 0 0 0 0 0 0 0 0 0 0 0 0 0 0 0 0 0
0 0 0 0 0 0 0 0 0 0 0 0 0 0 0 0 0 0 0 0 0 0 0 0 0 0 0 0 0 0 0 0 0 0 0 0 0 0 0 0 0 0 0 0
0 0 0 0 0 0 0 0 0 0 0 0 0 0 0 0 0 0 0 0 0 0 0 0 0 0 0 0 0 0 0 0 0 0 0 0 0 0 0 0 0 0 0 0
0 0 0 0 0 0 0 0 0 0 0 0 0 0 0 0 0 0 0 0 0 0 0 0 0 0 0 0 0 0 0 0 0 0 0 0 0 0 0 0 0 0 0 0
0 0 0 0 0 0 0 0 0 0 0 0 0 0 0 0 0 0 0 0 0 0 0 0 0 0 0 0 0 0 0 0 0 0 0 0 0 0 0 0 0 0 0 0
0 0 0 0 0 0 0 0 0 0 0 0 0 0 0 0 0 0 0 0 0 0 0 0 0 0 0 0 0 0 0 0 0 0 0 0 0 0 0 0 0 0 0 0
0 0 0 0 0 0 0 0 0 0 0 0 0 0 0 0 0 0 0 0 0 0 0 0 0 0 0 0 0 0 0 0 0 0 0 0 0 0 0 0 0 0 0 0
0 0 0 0 0 0 0 0 0 0 0 0 0 0 0 0 0 0 0 0 0 0 0 0 0 0 0 0 0 0 0 0 0 0 0 0 0 0 0 0 0 0 0 0
0 0 0 0 0 0 0 0 0 0 0 0 0 0 0 0 0 0 0 0 0 0 0 0 0 0 0 0 0 0 0 0 0 0 0 0 0 0 0 0 0 0 0 0
0 0 0 0 0 0 0 0 0 0 0 0 0 0 0 0 0 0 0 0 0 0 0 0 0 0 0 0 0 0 0 0 0 0 0 0 0 0 0 0 0 0 0 0
0 0 0 0 0 0 0 0 0 0 0 0 0 0 0 0 0 0 0 0 0 0 0 0 0 0 0 0 0 0 0 0 0 0 0 0 0 0 0 0 0 0 0 0
0 0 0 0 0 0 0 0 0 0 0 0 0 0 0 0 0 0 0 0 0 0 0 0 0 0 0 0 0 0 0 0 0 0 0 0 0 0 0 0 0 0 0 0
0 0 0 0 0 0 0 0 0 0 0 0 0 0 0 0 0 0 0 0 0 0 0 0 0 0 0 0 0 0 0 0 0 0 0 0 0 0 0 0 0 0 0 0
0 0 0 0 0 0 0 0 0 0 0 0 0 0 0 0 0 0 0 0 0 0 0 0 0 0 0 0 0 0 0 0 0 0 0 0 0 0 0 0 0 0 0 0
0 0 0 0 0 0 0 0 0 0 0 0 0 0 0 0 0 0 0 0 0 0 0 0 0 0 0 0 0 0 0 0 0 0 0 0 0 0 0 0 0 0 0 0
0 0 0 0 0 0 0 0 0 0 0 0 0 0 0 0 0 0 0 0 0 0 0 0 0 0 0 0 0 0 0 0 0 0 0 0 0 0 0 0 0 0 0 0
0 0 0 0 0 0 0 0 0 0 0 0 0 0 0 0 0 0 0 0 0 0 0 0 0 0 0 0 0 0 0 0 0 0 0 0 0 0 0 0 0 0 0 0
0 0 0 0 0 0 0 0 0 0 0 0 0 0 0 0 0 0 0 0 0 0 0 0 0 0 0 0 0 0 0 0 0 0 0 0 0 0 0 0 0 0 0 0
0 0 0 0 0 0 0 0 0 0 0 0 0 0 0 0 0 0 0 0 0 0 0 0 0 0 0 0 0 0 0 0 0 0 0 0 0 0 0 0 0 0 0 0
0 0 0 0 0 0 0 0 0 0 0 0 0 0 0 0 0 0 0 0 0 0 0 0 0 0 0 0 0 0 0 0 0 0 0 0 0 0 0 0 0 0 0 0
0 0 0 0 0 0 0 0 0 0 0 0 0 0 0 0 0 0 0 0 0 0 0 0 0 0 0 0 0 0 0 0 0 0 0 0 0 0 0 0 0 0 0 0
0 0 0 0 0 0 0 0 0 0 0 0 0 0 0 0 0 0 0 0 0 0 0 0 0 0 0 0 0 0 0 0 0 0 0 0 0 0 0 0 0 0 0 0
0 0 0 0 0 0 0 0 0 0 0 0 0 0 0 0 0 0 0 0 0 0 0 0 0 0 0 0 0 0 0 0 0 0 0 0 0 0 0 0 0 0 0 0
0 0 0 0 0 0 0 0 0 0 0 0 0 0 0 0 0 0 0 0 0 0 0 0 0 0 0 0 0 0 0 0 0 0 0 0 0 0 0 0 0 0 0 0
Height
5619 5620 5621 5623 5625 5625 5625 5626 5626 5628 5628 5628 5627 5627 5626 5626 5625 5624 5624 5623 5622 5621 5620 5620 5619 5619 5618 5617 5617 5617 5617 5617 5617 5617 5618 5618 5619 5619 5618 5618 5618 5617 5617 5617
5609 5610 5610 5612 5614 5615 5615 5616 5616 5617 5618 5619 5618 5617 5617 5616 5616 5616 5616 5614 5614 5613 5612 5611 5611 5610 5609 5609 5608 5608 5608 5608 5608 5608 5608 5608 5608 5608 5607 5607 5606 5605 5605 5604
5597 5599 5599 5601 5605 5605 5606 5607 5607 5607 5609 5608 5608 5608 5608 5607 5607 5607 5607 5606 5605 5604 5603 5602 5601 5600 5600 5599 5599 5599 5599 5598 5598 5598 5597 5597 5596 5596 5596 5595 5594 5593 5592 5591
5585 5587 5588 5593 5593 5594 5595 5596 5596 5597 5598 5599 5599 5599 5598 5598 5598 5598 5597 5597 5596 5595 5594 5593 5592 5591 5590 5590 5590 5590 5589 5589 5588 5587 5586 5586 5585 5584 5583 5582 5582 5581 5579 5578
5574 5575 5576 5581 5582 5583 5583 5585 5586 5587 5588 5588 5588 5589 5589 5589 5589 5589 5588 5587 5586 5585 5584 5583 5582 5582 5581 5580 5580 5579 5579 5578 5577 5576 5575 5574 5573 5572 5571 5570 5569 5568 5566 5565
5563 5564 5566 5571 5571 5571 5573 5574 5576 5576 5577 5577 5578 5579 5581 5580 5579 5579 5579 5578 5577 5576 5575 5574 5573 5572 5571 5571 5570 5569 5567 5567 5565 5564 5563 5562 5561 5560 5559 5557 5556 5554 5553 5551
5553 5554 5555 5559 5560 5560 5563 5565 5565 5565 5566 5567 5568 5569 5569 5569 5569 5569 5568 5568 5567 5566 5565 5564 5563 5562 5561 5560 5559 5558 5556 5555 5554 5553 5552 5550 5549 5548 5546 5545 5543 5541 5540 5538
5543 5544 5548 5548 5549 5551 5551 5552 5553 5554 5555 5556 5557 5557 5557 5558 5558 5558 5558 5557 5557 5556 5555 5554 5553 5552 5551 5549 5548 5547 5546 5544 5543 5541 5540 5538 5537 5535 5533 5532 5530 5528 5526 5525
5534 5537 5537 5537 5538 5539 5540 5541 5542 5543 5544 5545 5546 5546 5547 5547 5547 5547 5547 5547 5546 5545 5544 5543 5542 5540 5540 5538 5537 5536 5535 5533 5531 5530 5528 5527 5525 5523 5521 5519 5517 5515 5513 5512
5524 5526 5527 5527 5528 5528 5529 5530 5531 5533 5534 5534 5535 5535 5536 5536 5536 5536 5536 5536 5535 5534 5533 5532 5531 5529 5528 5527 5526 5525 5523 5522 5520 5518 5517 5515 5513 5511 5508 5506 5504 5502 5501 5499
5513 5515 5516 5517 5517 5518 5519 5520 5521 5522 5523 5523 5524 5525 5525 5525 5525 5525 5525 5524 5523 5522 5522 5521 5519 5518 5517 5515 5514 5513 5512 5510 5508 5507 5505 5503 5501 5499 5496 5494 5492 5490 5489 5488
5503 5505 5505 5507 5507 5508 5509 5510 5511 5512 5512 5512 5513 5513 5514 5514 5514 5514 5513 5513 5512 5511 5510 5509 5508 5506 5505 5504 5503 5501 5500 5499 5497 5495 5493 5491 5489 5487 5485 5483 5481 5479 5478 5478
5493 5494 5495 5497 5498 5498 5499 5500 5501 5501 5501 5502 5502 5502 5502 5502 5502 5502 5501 5501 5500 5499 5498 5497 5496 5495 5493 5492 5491 5490 5488 5487 5485 5483 5481 5479 5477 5475 5474 5473 5471 5469 5468 5468
5484 5485 5486 5487 5487 5488 5488 5489 5490 5490 5491 5491 5491 5491 5491 5491 5491 5490 5490 5489 5489 5488 5487 5486 5484 5483 5482 5480 5479 5478 5477 5475 5473 5472 5470 5468 5466 5464 5463 5462 5461 5460 5459 5458
5475 5475 5476 5477 5477 5478 5478 5479 5479 5480 5480 5480 5480 5480 5480 5480 5479 5479 5478 5478 5477 5476 5475 5474 5473 5472 5470 5469 5467 5466 5465 5463 5462 5460 5458 5457 5455 5453 5452 5451 5451 5450 5449 5448
5465 5466 5466 5467 5467 5467 5468 5468 5468 5469 5469 5469 5469 5469 5469 5468 5468 5468 5467 5467 5466 5465 5464 5463 5461 5460 5459 5457 5456 5455 5454 5452 5450 5449 5447 5446 5444 5443 5442 5441 5441 5440 5440 5439
5456 5457 5457 5457 5457 5457 5457 5457 5458 5458 5458 5458 5458 5458 5457 5457 5457 5457 5456 5455 5454 5453 5452 5451 5450 5449 5448 5446 5445 5444 5442 5441 5440 5438 5437 5436 5435 5434 5433 5432 5431 5431 5430 5430
5447 5448 5447 5447 5447 5447 5447 5447 5447 5447 5447 5447 5447 5447 5446 5446 5445 5445 5445 5444 5443 5442 5441 5440 5439 5438 5437 5435 5434 5433 5432 5431 5429 5428 5427 5426 5425 5425 5424 5423 5422 5422 5421 5421
5439 5439 5439 5438 5438 5438 5438 5437 5437 5437 5436 5436 5436 5436 5435 5434 5434 5433 5433 5432 5432 5431 5430 5429 5428 5427 5426 5425 5424 5423 5422 5421 5420 5419 5418 5417 5416 5416 5415 5414 5414 5413 5412 5412
5430 5430 5430 5429 5429 5428 5428 5427 5427 5427 5426 5425 5425 5425 5424 5424 5423 5422 5422 5421 5421 5420 5419 5418 5417 5417 5416 5415 5414 5413 5412 5411 5411 5410 5409 5408 5408 5407 5406 5405 5405 5404 5404 5403
5422 5422 5421 5421 5420 5419 5419 5418 5417 5417 5416 5415 5414 5414 5413 5413 5412 5411 5411 5411 5410 5409 5409 5408 5407 5407 5406 5405 5404 5404 5403 5402 5401 5400 5400 5399 5399 5398 5397 5397 5396 5395 5395 5394
5414 5413 5412 5412 5411 5410 5409 5408 5407 5407 5406 5405 5404 5404 5403 5402 5402 5401 5400 5400 5400 5399 5399 5398 5398 5397 5396 5395 5395 5394 5393 5393 5392 5391 5390 5390 5390 5389 5389 5388 5387 5387 5386 5386
5405 5404 5404 5403 5402 5401 5400 5399 5398 5397 5396 5395 5395 5394 5393 5392 5391 5391 5391 5390 5389 5389 5388 5388 5388 5387 5387 5386 5385 5385 5384 5383 5382 5382 5381 5381 5380 5380 5380 5379 5379 5378 5378 5377
5397 5396 5395 5394 5392 5392 5391 5390 5388 5388 5387 5386 5385 5384 5383 5382 5382 5381 5380 5380 5379 5379 5379 5378 5378 5377 5377 5376 5376 5375 5374 5373 5373 5372 5372 5372 5372 5371 5371 5370 5370 5370 5369 5368
5389 5388 5386 5385 5384 5383 5382 5381 5380 5379 5377 5377 5376 5374 5373 5373 5372 5371 5370 5370 5370 5369 5369 5368 5368 5367 5367 5366 5366 5365 5365 5364 5364 5364 5363 5363 5363 5362 5362 5361 5361 5361 5360 5360
5381 5379 5378 5377 5376 5374 5373 5372 5371 5369 5368 5367 5366 5365 5364 5363 5362 5362 5361 5360 5360 5359 5359 5359 5358 5358 5357 5357 5356 5356 5355 5355 5355 5355 5354 5354 5354 5353 5353 5353 5352 5352 5352 5352
5373 5372 5370 5369 5367 5366 5365 5363 5362 5361 5360 5358 5358 5357 5355 5354 5353 5352 5352 5351 5350 5350 5349 5349 5348 5348 5348 5347 5347 5347 5347 5346 5346 5346 5346 5345 5345 5345 5344 5344 5344 5344 5344 5344
Wind_Speed
36 36 35 34 34 33 33 33 34 33 32 31 30 30 29 28 28 28 28 27 27 28 29 29 29 29 30 30 31 31 32 32 33 34 35 35 37 38 39 40 41 42 43 44
37 37 37 37 35 35 35 34 34 34 33 32 32 31 30 30 30 29 29 29 30 30 30 31 31 31 32 32 32 32 33 34 35 35 36 37 38 38 39 40 41 42 43 44
37 37 39 39 36 36 36 36 36 35 34 34 33 32 31 30 31 31 31 31 31 31 32 33 33 33 33 33 34 34 35 35 35 36 37 38 38 39 40 41 41 41 42 43
39 38 40 38 37 37 36 36 36 35 34 34 34 33 32 32 31 31 32 32 32 32 33 33 34 34 35 35 35 35 36 37 37 37 38 38 38 39 40 40 41 41 42 43
39 40 40 38 37 36 36 35 35 35 34 34 34 33 33 33 33 32 32 32 32 32 33 33 34 34 35 35 36 36 37 38 38 38 38 39 39 39 40 40 41 42 44 45
37 38 38 37 35 36 37 36 35 35 35 35 35 34 33 34 34 34 34 33 33 33 33 33 33 34 35 36 36 37 37 38 38 39 39 40 40 40 41 42 43 44 44 45
34 35 36 35 33 34 35 35 34 34 34 34 35 35 34 34 34 34 34 34 34 34 34 34 34 35 35 36 36 37 37 38 39 39 40 41 41 42 43 43 43 44 44 44
33 34 33 33 33 33 33 34 34 34 34 34 35 35 35 35 35 35 35 35 35 35 35 36 36 36 36 37 37 37 38 38 39 40 41 42 42 42 42 43 43 43 44 43
33 34 34 33 33 33 33 33 32 33 34 35 35 35 35 35 35 35 35 35 35 36 36 36 36 36 37 37 37 38 38 39 40 40 40 41 41 42 42 42 43 43 42 42
34 33 33 33 34 34 33 34 34 34 34 34 34 34 35 35 35 35 35 35 35 36 36 36 36 36 37 37 37 38 38 38 39 39 39 40 40 41 42 42 41 41 40 39
33 33 33 32 33 34 34 34 34 34 34 35 35 35 35 35 35 35 35 36 36 37 37 37 37 37 37 37 38 38 38 38 38 39 40 40 40 41 41 41 40 39 39 38
31 31 32 33 34 34 34 34 34 34 34 34 34 34 34 35 35 35 35 36 36 37 37 37 38 38 38 38 38 38 38 38 39 39 39 40 40 39 39 39 38 38 37 37
31 31 32 32 33 33 34 34 34 34 34 34 34 34 35 35 35 36 36 36 36 36 36 36 37 37 38 38 39 39 39 39 39 39 39 39 38 38 37 36 36 36 35 35
31 32 32 32 32 33 34 34 34 35 35 34 34 35 35 35 36 36 36 36 36 36 36 36 37 37 38 38 38 39 38 38 39 39 39 38 38 37 36 35 34 34 34 34
29 30 31 32 33 33 33 33 34 34 35 35 34 34 34 34 35 35 36 36 36 36 37 37 37 37 38 38 37 37 37 37 37 37 37 37 36 35 34 34 33 33 32 32
29 30 31 32 32 33 33 33 34 34 34 34 35 35 35 35 36 35 35 35 36 36 36 36 36 36 36 36 37 37 37 36 36 36 35 35 34 33 33 33 32 32 31 31
28 28 29 30 31 32 33 34 34 34 34 35 35 35 35 35 36 35 35 35 36 36 36 35 35 35 34 34 35 35 35 35 34 33 33 32 32 31 31 31 30 30 30 30
26 27 27 28 29 30 31 32 33 33 34 35 35 35 35 35 36 36 36 36 35 35 35 34 34 34 33 33 33 32 32 32 31 31 31 31 30 30 30 30 30 30 29 29
26 27 27 27 28 29 29 30 31 32 32 33 33 33 34 35 36 36 36 35 34 34 34 34 33 33 32 32 31 31 30 30 30 30 29 29 28 29 29 29 29 29 29 28
25 26 26 27 27 28 29 30 30 31 31 32 32 32 33 34 34 34 34 34 34 33 33 32 31 31 31 30 30 29 29 29 29 30 29 29 29 29 29 29 29 28 28 27
25 26 26 27 28 29 29 30 30 30 30 31 31 31 32 32 32 33 33 33 33 32 32 31 30 30 29 29 28 28 28 28 28 28 28 28 28 28 29 28 28 28 27 27
25 25 26 27 28 28 29 29 29 29 29 30 30 30 30 30 31 31 31 32 31 31 30 29 29 29 28 28 28 28 29 29 28 28 28 28 28 28 27 26 26 26 26 26
24 25 26 28 28 28 28 29 29 29 29 29 29 30 30 29 29 29 29 29 30 30 29 29 28 28 28 28 28 29 29 29 28 28 28 27 27 27 27 27 26 26 26 26
24 25 25 26 27 27 27 27 28 28 28 28 28 28 28 28 28 28 28 27 28 28 28 28 28 28 28 28 29 28 28 28 27 27 26 26 26 26 26 26 26 26 26 26
24 25 25 25 25 25 26 26 27 27 28 28 28 27 27 27 26 26 26 26 27 27 27 27 28 28 28 28 28 27 27 26 26 26 26 26 25 26 26 26 26 26 26 25
23 24 24 24 24 24 24 25 25 25 26 26 26 26 26 26 26 25 25 26 26 26 26 26 26 27 27 27 27 27 26 25 25 26 26 26 26 25 25 26 26 25 25 24
23 23 23 23 24 24 24 24 23 23 23 23 23 24 24 24 24 24 24 24 24 25 25 26 26 26 25 25 25 25 25 25 25 24 24 25 24 24 24 24 24 23 23 22
Wind_Direction
254 256 257 258 259 259 260 262 265 267 268 269 270 272 273 274 274 274 275 275 275 276 275 274 273 272 272 272 270 269 269 269 267 267 265 265 267 267 268 269 269 270 271 272
254 255 257 258 259 260 261 262 264 265 266 267 268 270 271 270 270 272 273 273 275 275 274 273 273 272 271 270 270 270 270 270 270 270 269 269 269 270 271 271 271 272 272 273
255 255 258 258 259 260 262 263 263 264 264 265 267 268 269 269 270 271 272 272 273 274 274 272 272 272 271 271 271 271 271 272 271 272 272 273 272 271 272 272 272 273 274 275
257 257 257 260 260 261 261 261 262 262 263 263 264 266 267 267 268 270 272 273 274 274 274 273 272 273 272 272 272 272 272 273 273 273 274 274 273 273 274 274 274 275 277 278
258 259 260 260 261 261 262 262 262 262 263 263 264 265 266 266 268 269 271 272 273 274 274 273 272 272 273 273 274 274 275 274 274 274 276 275 275 275 275 276 276 277 278 279
259 261 263 263 262 262 263 263 263 263 263 263 264 265 265 265 267 268 270 271 272 273 274 273 272 272 272 273 275 276 276 276 275 275 276 277 276 276 277 277 278 279 279 279
259 261 262 264 264 264 264 264 263 263 264 265 265 265 265 265 266 268 269 270 271 273 274 274 273 272 273 274 275 276 276 276 276 276 277 278 278 278 278 279 280 280 280 280
259 259 261 263 264 263 264 263 263 264 264 265 265 265 265 265 266 268 269 270 271 273 274 274 274 274 274 274 275 275 276 276 276 277 277 279 280 280 281 281 281 282 281 280
257 259 260 261 262 262 263 263 262 263 264 265 265 266 265 264 266 268 269 271 272 273 274 274 275 275 275 275 275 276 276 277 277 278 278 279 280 281 281 282 282 281 280 280
257 258 260 261 261 261 261 262 262 264 265 266 267 267 267 266 267 269 271 272 273 273 274 274 275 275 275 275 276 277 278 278 278 279 279 280 280 281 282 282 282 280 280 279
258 258 258 259 260 259 260 261 263 264 265 267 267 267 268 268 270 271 272 273 274 274 274 275 276 276 276 276 277 277 278 279 280 281 281 281 281 282 282 281 280 279 278 277
257 255 256 259 260 260 261 262 263 265 266 267 268 268 268 269 270 271 273 274 275 275 275 276 276 277 277 277 278 278 279 279 280 281 281 281 282 282 281 281 279 278 277 277
257 256 256 259 260 261 261 261 263 265 267 267 267 267 268 269 270 272 273 275 275 275 276 277 277 278 277 278 278 279 279 280 280 281 281 282 282 281 280 279 277 276 276 276
259 259 259 259 260 260 260 261 262 264 266 267 268 269 269 269 271 272 273 275 275 276 276 277 277 277 277 277 278 278 279 279 280 280 281 281 281 281 280 279 277 276 276 275
261 261 261 261 262 262 262 263 263 264 265 266 268 269 269 270 271 272 272 274 275 275 276 277 278 279 278 278 277 278 278 279 280 279 280 280 280 279 277 277 277 276 275 274
261 263 264 263 263 264 265 265 265 265 266 267 268 269 270 271 271 271 273 274 274 275 275 277 278 279 279 279 278 278 278 279 279 279 278 278 277 276 275 275 276 275 274 274
264 266 266 265 265 266 267 267 267 267 267 268 269 270 271 270 270 271 274 274 274 274 275 275 277 278 279 280 280 279 278 278 277 277 277 276 275 275 275 275 275 274 274 274
267 268 268 268 268 268 268 269 269 268 269 270 270 271 271 271 271 272 273 274 274 273 274 274 275 276 278 280 281 279 278 277 276 276 276 275 274 274 274 275 275 274 275 276
269 270 270 269 269 269 270 270 270 270 270 271 271 270 271 271 272 272 272 272 272 273 274 274 275 276 277 279 279 278 276 276 276 276 275 274 273 273 274 274 274 275 276 276
270 270 270 270 271 271 272 272 272 272 272 272 271 271 271 272 272 272 271 270 271 273 274 274 275 276 276 277 276 276 276 276 276 275 274 272 272 273 274 273 273 273 275 276
271 270 271 271 272 272 274 274 274 273 272 273 273 273 272 272 272 271 271 270 271 272 273 274 274 274 274 275 275 276 276 276 276 274 272 271 272 273 273 273 272 273 274 275
273 273 273 273 273 273 273 274 274 274 274 274 274 274 274 274 273 273 272 271 270 271 272 272 273 273 273 274 275 276 276 275 275 274 273 272 273 273 273 273 273 274 275 275
275 276 276 276 276 275 274 275 275 275 274 275 275 275 275 275 275 274 273 271 270 270 270 270 271 272 272 273 276 276 275 274 273 272 272 272 273 273 272 272 273 274 275 275
279 279 280 281 279 277 276 276 276 276 276 277 277 277 277 277 275 274 273 271 270 269 270 270 270 271 272 273 274 275 274 273 271 270 270 271 273 273 272 271 272 273 274 275
283 282 283 284 283 281 279 278 278 277 277 277 277 278 278 278 276 274 273 271 271 271 271 270 270 271 272 272 273 273 273 272 270 269 269 271 272 273 273 272 272 273 273 273
286 284 284 284 284 284 283 282 282 280 278 277 276 276 277 276 275 275 275 274 272 271 270 271 272 272 272 272 272 271 271 270 270 270 270 270 272 273 272 271 272 272 271 270
289 288 286 286 286 286 285 284 283 282 281 280 278 277 277 277 275 275 275 275 274 272 271 271 272 272 271 271 270 270 269 269 270 270 270 271 271 271 270 271 272 271 269 268